Manor / Austin Executive, TX

10:26 AM CST on December 12, 2019 (GMT -0600)
Manor / Austin Executive

Weather History for KEDC - October, 2019

Change the Weather History Date:

Monday, October 28, 2019

  Actual Average (KAUS) Record (KAUS)
Temperature  
Mean Temperature 66 °F -  
Max Temperature 78 °F 75 °F 89 °F (1950)
Min Temperature 53 °F 54 °F 33 °F (2008)
Growing Degree Days 16 (Base 50)    
Moisture  
Dew Point 59 °F    
Average Humidity 82    
Maximum Humidity 100    
Minimum Humidity 57    
Precipitation  
Precipitation 0.00 in - - ()
Sea Level Pressure  
Sea Level Pressure 29.96 in    
Wind  
Wind Speed 2 mph (ESE)    
Max Wind Speed 15 mph    
Max Gust Speed -    
Visibility 9 miles    
Events      
Averages and records for this station are not official NWS values.
T = Trace of Precipitation, MM = Missing Value Source: NWS Daily Summary

Daily Weather History Graph

Daily Weather History Graph

Search for Another Location

Airport or City:

Astronomy

Oct. 28, 2019 Rise Set
Actual Time 7:41 AM CDT 6:46 PM CDT
Civil Twilight 7:16 AM CDT 7:10 PM CDT
Nautical Twilight 6:48 AM CDT 7:39 PM CDT
Astronomical Twilight 6:20 AM CDT 8:07 PM CDT
Moon 8:06 AM CDT (10/28) 7:33 PM CDT (10/28)
Length of Visible Light 11h 53m
Length of Day
11h 04m
New Moon, 0% of the Moon is Illuminated
Oct 28
New Moon
Nov 4
First Quarter
Nov 12
Full
Nov 19
Last Quarter
Nov 26
New

Hourly Weather History & Observations

Time (CDT) Temp. Dew Point Humidity Pressure Visibility Wind Dir Wind Speed Gust Speed Precip Events Conditions
12:15 AM 59.0 °F 51.8 °F 77% 29.97 in 10.0 mi Calm Calm - N/A   Clear
12:35 AM 57.2 °F 53.6 °F 88% 29.97 in 10.0 mi Calm Calm - N/A   Clear
12:55 AM 59.0 °F 53.6 °F 82% 29.97 in 10.0 mi Calm Calm - N/A   Clear
1:15 AM 59.0 °F 53.6 °F 82% 29.97 in 10.0 mi Calm Calm - N/A   Clear
1:35 AM 57.2 °F 53.6 °F 88% 29.97 in 10.0 mi Calm Calm - N/A   Clear
1:55 AM 57.2 °F 53.6 °F 88% 29.97 in 10.0 mi Calm Calm - N/A   Clear
2:15 AM 57.2 °F 53.6 °F 88% 29.97 in 10.0 mi Calm Calm - N/A   Clear
2:35 AM 57.2 °F 55.4 °F 94% 29.97 in 10.0 mi Calm Calm - N/A   Clear
2:55 AM 57.2 °F 55.4 °F 94% 29.98 in 10.0 mi Calm Calm - N/A   Clear
3:15 AM 55.4 °F 53.6 °F 94% 29.97 in 10.0 mi Calm Calm - N/A   Clear
3:35 AM 55.4 °F 53.6 °F 94% 29.97 in 10.0 mi Calm Calm - N/A   Clear
3:55 AM 55.4 °F 55.4 °F 100% 29.98 in 10.0 mi Calm Calm - N/A   Scattered Clouds
4:15 AM 57.2 °F 55.4 °F 94% 29.98 in 10.0 mi Calm Calm - N/A   Mostly Cloudy
4:35 AM 57.2 °F 55.4 °F 94% 29.98 in 10.0 mi Calm Calm - N/A   Mostly Cloudy
4:55 AM 55.4 °F 53.6 °F 94% 29.98 in 7.0 mi Calm Calm - N/A   Mostly Cloudy
5:15 AM 55.4 °F 53.6 °F 94% 29.97 in 5.0 mi Calm Calm - N/A   Mostly Cloudy
5:35 AM 55.4 °F 53.6 °F 94% 29.98 in 5.0 mi Calm Calm - N/A   Partly Cloudy
5:55 AM 55.4 °F 53.6 °F 94% 29.98 in 7.0 mi Calm Calm - N/A   Partly Cloudy
6:15 AM 53.6 °F 51.8 °F 94% 29.99 in 9.0 mi Calm Calm - N/A   Mostly Cloudy
6:35 AM 55.4 °F 53.6 °F 94% 29.98 in 6.0 mi Calm Calm - N/A   Overcast
6:55 AM 55.4 °F 53.6 °F 94% 29.99 in 5.0 mi Calm Calm - N/A   Overcast
7:15 AM 55.4 °F 55.4 °F 100% 29.99 in 6.0 mi Calm Calm - N/A   Overcast
7:55 AM 57.2 °F 55.4 °F 94% 30.00 in 5.0 mi Calm Calm - N/A   Overcast
8:15 AM 57.2 °F 55.4 °F 94% 30.00 in 5.0 mi Calm Calm - N/A   Overcast
8:35 AM 57.2 °F 55.4 °F 94% 30.00 in 5.0 mi Calm Calm - N/A   Overcast
8:55 AM 57.2 °F 57.2 °F 100% 30.00 in 5.0 mi Calm Calm - N/A   Overcast
9:15 AM 57.2 °F 57.2 °F 100% 30.01 in 4.0 mi Calm Calm - N/A   Overcast
9:35 AM 57.2 °F 57.2 °F 100% 30.01 in 5.0 mi Calm Calm - N/A   Overcast
10:15 AM 59.0 °F 57.2 °F 94% 30.01 in 5.0 mi Calm Calm - N/A   Overcast
10:35 AM 59.0 °F 57.2 °F 94% 30.01 in 6.0 mi Calm Calm - N/A   Overcast
11:15 AM 62.6 °F 59.0 °F 88% 30.00 in 8.0 mi Calm Calm - N/A   Overcast
12:55 PM 68.0 °F 62.6 °F 83% 29.98 in 10.0 mi Calm Calm - N/A   Overcast
1:15 PM 71.6 °F 62.6 °F 73% 29.97 in 10.0 mi Calm Calm - N/A   Overcast
1:35 PM 71.6 °F 62.6 °F 73% 29.95 in 10.0 mi SE 3.5 mph - N/A   Overcast
1:55 PM 75.2 °F 62.6 °F 65% 29.94 in 10.0 mi SE 5.8 mph - N/A   Mostly Cloudy
2:15 PM 77.0 °F 62.6 °F 61% 29.92 in 10.0 mi SSE 6.9 mph - N/A   Mostly Cloudy
2:35 PM 75.2 °F 62.6 °F 65% 29.92 in 10.0 mi South 4.6 mph - N/A   Overcast
3:15 PM 77.0 °F 64.4 °F 65% 29.91 in 10.0 mi SSE 5.8 mph - N/A   Overcast
3:35 PM 77.0 °F 64.4 °F 65% 29.90 in 10.0 mi SSE 4.6 mph - N/A   Overcast
3:55 PM 77.0 °F 64.4 °F 65% 29.89 in 10.0 mi SE 10.4 mph - N/A   Overcast
4:35 PM 78.8 °F 62.6 °F 57% 29.89 in 10.0 mi SSE 9.2 mph - N/A   Mostly Cloudy
4:55 PM 78.8 °F 64.4 °F 61% 29.89 in 10.0 mi South 8.1 mph - N/A   Mostly Cloudy
5:15 PM 78.8 °F 62.6 °F 57% 29.89 in 10.0 mi South 8.1 mph - N/A   Overcast
5:35 PM 77.0 °F 64.4 °F 65% 29.89 in 10.0 mi ESE 9.2 mph - N/A   Overcast
5:55 PM 77.0 °F 64.4 °F 65% 29.90 in 10.0 mi ESE 8.1 mph - N/A   Overcast
6:15 PM 77.0 °F 64.4 °F 65% 29.90 in 10.0 mi SE 9.2 mph - N/A   Overcast
6:35 PM 77.0 °F 64.4 °F 65% 29.91 in 10.0 mi SE 6.9 mph - N/A   Overcast
6:55 PM 75.2 °F 64.4 °F 69% 29.91 in 10.0 mi SE 5.8 mph - N/A   Overcast
7:15 PM 75.2 °F 64.4 °F 69% 29.92 in 10.0 mi Calm Calm - N/A   Overcast
7:35 PM 73.4 °F 64.4 °F 73% 29.93 in 10.0 mi Calm Calm - N/A   Overcast
7:55 PM 73.4 °F 64.4 °F 73% 29.94 in 10.0 mi East 4.6 mph - N/A   Overcast
8:15 PM 73.4 °F 64.4 °F 73% 29.94 in 10.0 mi East 5.8 mph - N/A   Overcast
8:35 PM 71.6 °F 64.4 °F 78% 29.94 in 10.0 mi East 5.8 mph - N/A   Overcast
8:55 PM 71.6 °F 64.4 °F 78% 29.95 in 10.0 mi ESE 6.9 mph - N/A   Overcast
9:15 PM 71.6 °F 66.2 °F 83% 29.95 in 10.0 mi ESE 6.9 mph - N/A   Overcast
9:35 PM 71.6 °F 66.2 °F 83% 29.96 in 10.0 mi ENE 4.6 mph - N/A   Overcast
9:55 PM 68.0 °F 60.8 °F 78% 29.97 in 10.0 mi North 5.8 mph - N/A   Overcast
10:15 PM 66.2 °F 60.8 °F 83% 29.98 in 10.0 mi North 12.7 mph - N/A   Overcast
10:35 PM 64.4 °F 59.0 °F 83% 29.99 in 10.0 mi North 11.5 mph - N/A   Overcast
10:55 PM 64.4 °F 57.2 °F 77% 30.00 in 10.0 mi North 11.5 mph - N/A   Overcast
11:15 PM 62.6 °F 57.2 °F 82% 30.01 in 10.0 mi North 8.1 mph - N/A   Overcast
11:35 PM 60.8 °F 55.4 °F 82% 30.01 in 10.0 mi North 13.8 mph - N/A   Overcast
11:55 PM 59.0 °F 55.4 °F 88% 30.02 in 8.0 mi North 15.0 mph - N/A   Overcast